User: anonymous   Login
Location: Unspecified
(0.0000°N, 0.0000°E)
Time: 09:01:15
(UTC+00:00)
Language:

HAVELSAT - Orbit

View from above orbital plane
View from above orbital plane
View from above satellite
View from above satellite

Ground track
Ground track

The orbit data is extracted from the following two-line orbital elements,

1 42700U 98067LH  18267.82934452 +.00054049 +00000-0 +32157-3 0  9997
2 42700 051.6295 203.0837 0000901 274.8092 085.2806 15.77420989077711
Epoch (UTC): 24 September 2018 19:54:15
Eccentricity: 0.0000901
inclination: 51.6295°
perigee height: 337 km
apogee height: 338 km
right ascension of ascending node: 203.0837°
argument of perigee: 274.8092°
revolutions per day: 15.77420989
mean anomaly at epoch: 85.2806°
orbit number at epoch: 7771

The dashed part of the orbit path shows where the satellite is in the earth's shadow,  

DLR